[Date Prev][Date Next][Thread Prev][Thread Next] - [Date Index][Thread Index][Author Index]
2 Line ISS Keps 1-25
- Subject: [sarex] 2 Line ISS Keps 1-25
- From: "Dave Larsen PhD" <doc@xxxxxxxxxxx>
- Date: Wed, 25 Jan 2006 05:48:55 -0800
ISS
1 25544U 98067A 06025.48155427 .00009929 00000-0 71711-4 0 2161
2 25544 051.6441 201.3171 0009794 193.1268 262.2975 15.74216841410677
----
Via the sarex mailing list at AMSAT.ORG courtesy of AMSAT-NA.
To unsubscribe, send "unsubscribe sarex" to Majordomo@amsat.org
AMSAT Home